Find UGATUSAT

NORAD ID: 35869 Int'l Des: 2009-049 Owner: UGATU Country: RU operational
LEOCIRCULARRETROGRADESSO

Live Position

Loading 3D Globe...

About UGATUSAT

Description loading...

Upcoming Passes

Passes for default location (London). Set your location on the main map for personalized predictions.

Altitude History

Loading altitude history...

Two-Line Element Set

1 35869U 09049E 26105.87041330 .00000021 00000-0 28952-4 0 9996
2 35869 98.7346 68.1759 0005393 116.2401 243.9332 14.23200968860567
Epoch: Apr 15, 2026 • Age: 15 hours

Current Status

Altitude 823.0 km
Velocity 7.45 km/s
Sub-Earth Point 64.03°N, 20.15°E
Launch Date Sep 17, 2009
Age 16.5 years
Type other

Technical Details

Classification Payload
Mass 35.00 kg
Dry Mass 35.00 kg
Total Mass 35.00 kg
Length 0.80 m
Diameter 0.50 m
Span 0.80 m
Shape Tri Cyl + Pan
Manufacturer UGATU
Phase Status In Orbit
Owner/State UGATU/RU

Most Searched